Regional Weather Roundup
Issued by NWS

Home | Current Version | Previous Version | Graphics & Text | Print | Product List | Glossary On
Versions: 1 2 3 4 5 6 7 8 9 10 11 12 13 14 15 16 17 18 19 20 21 22 23 24 25 26 27 28 29 30 31 32 33 34 35 36 37 38 39 40 41 42 43 44 45 46 47 48 49 50
000
ASUS43 KDMX 251908
RWRIA

WEATHER ROUNDUP FOR IOWA
NATIONAL WEATHER SERVICE DES MOINES IA
200 PM CDT MON JUL 25 2016

NOTE: "FAIR" INDICATES FEW OR NO CLOUDS BELOW 12,000 FEET WITH NO
SIGNIFICANT WEATHER AND/OR OBSTRUCTIONS TO VISIBILITY.

* - THESE STATIONS ARE NOT NWS STATIONS...THUS NOT UNDER NWS
QUALITY CONTROL.  THEY ALSO DO NOT REPORT WEATHER SUCH
AS PRECIPITATION OR FOG.

IAZ001>003-012>014-020>022-031>034-043>046-252000-
   NORTHWEST IOWA

CITY           SKY/WX    TMP DP  RH WIND       PRES   REMARKS
CARROLL *      SUNNY     82  63  51 N7        30.11F HX  83
CHEROKEE *     SUNNY     84  59  42 CALM      30.11F HX  84
DENISON *      SUNNY     84  63  48 VRB3      30.10F HX  85
LE MARS *      SUNNY     84  64  51 SW8       30.12F HX  86
SHELDON *      SUNNY     82  64  54 SW8       30.11F HX  84
SIOUX CITY     SUNNY     86  62  44 SE8       30.11F HX  86
SPENCER        SUNNY     84  58  40 S5        30.12S HX  83
STORM LAKE *     N/A     82  63  51 VRB3      30.13F HX  83
$$

IAZ055>058-069>071-079>083-090>094-252000-
   SOUTHWEST IOWA

CITY           SKY/WX    TMP DP  RH WIND       PRES   REMARKS
ATLANTIC *     SUNNY     84  63  48 CALM      30.11F HX  85
CLARINDA *       N/A     82  68  61 MISG      30.11F HX  85
COUNCIL BLFS * SUNNY     82  66  57 CALM      30.12F HX  85
CRESTON *      CLOUDY    82  66  57 N8G14     30.12F HX  85
HARLAN  *      SUNNY     82  64  54 CALM      30.15F HX  84
LAMONI         MOSUNNY   83  67  58 N9        30.08F HX  85
RED OAK *      SUNNY     84  66  54 N6        30.10F HX  86
SHENANDOAH *   SUNNY     82  68  61 NE6       30.10F HX  85
$$

IAZ047>049-059>061-072>074-084-252000-
   CENTRAL IOWA

CITY           SKY/WX    TMP DP  RH WIND       PRES   REMARKS
AMES           SUNNY     85  64  49 NW8       30.09F HX  86
ANKENY *         N/A    N/A N/A N/A MISG        N/A
BOONE *        SUNNY     84  63  48 N10       30.10S HX  85
CHARITON *       N/A    N/A N/A N/A MISG        N/A
DES MOINES     MOSUNNY   87  60  40 N9        30.08F HX  87
GRINNELL*      SUNNY     82  64  54 N5        30.09F HX  84
KNOXVILLE *    MOSUNNY   82  64  54 N9        30.07F HX  84
MARSHALLTOWN   SUNNY     84  64  50 NW7       30.08F HX  85
NEWTON *       SUNNY     84  64  51 NW10      30.08F HX  86
PELLA *        SUNNY     84  65  53 N6        30.09F HX  85
PERRY *          N/A     83  66  55 N5        30.10F HX  85
$$

IAZ004>006-015-016-023>025-035-036-252000-
   NORTH CENTRAL IOWA

CITY           SKY/WX    TMP DP  RH WIND       PRES   REMARKS
ALGONA *       SUNNY     82  63  51 N6        30.11F HX  83
ESTHERVILLE    SUNNY     82  64  54 CALM      30.11F HX  83
FORT DODGE *   SUNNY     82  63  51 NW3       30.11F HX  83
MASON CITY     SUNNY     83  62  49 NW10      30.11S HX  84
FOREST CITY *    N/A     81  59  47 NW9       30.11S HX  81
IOWA FALLS *     N/A     84  60  44 NW7       30.10F HX  84
$$

IAZ007>011-017>019-026>030-037>042-050>054-066-252000-
   NORTHEAST IOWA

CITY           SKY/WX    TMP DP  RH WIND       PRES   REMARKS
CEDAR RAPIDS   SUNNY     83  65  54 N10       30.06S HX  85
CHARLES CITY * SUNNY     81  64  57 NW9G18    30.09F HX  82
CLINTON *      SUNNY     82  68  62 NW7       30.05R HX  85
DECORAH *      MOSUNNY   79  63  57 NW9       30.06F HX  80
DUBUQUE        MOSUNNY   81  64  56 NW9       30.06F HX  82
MONTICELLO *   SUNNY     82  66  57 NW10      30.05F HX  85
OELWEIN *      SUNNY     81  64  57 NW14G20   30.08F HX  82
WATERLOO       MOSUNNY   83  62  49 NW12      30.06S HX  84
$$

IAZ064-065-067-068-078-252000-
   EAST CENTRAL IOWA

CITY           SKY/WX    TMP DP  RH WIND       PRES   REMARKS
DAVENPORT      MOSUNNY   83  67  58 VRB6      30.05S HX  85
IOWA CITY      SUNNY     85  62  46 NW13      30.06S HX  85
MT. PLEASANT * PTSUNNY   83  68  62 N7        30.06S HX  86
MUSCATINE *    PTSUNNY   82  68  61 VRB6      30.05S HX  85
QUAD CITIES    MOSUNNY   87  64  46 MISG      30.03F HX  88
$$

IAZ062-063-075>077-085>089-095>099-252000-
   SOUTHEAST IOWA

CITY           SKY/WX    TMP DP  RH WIND       PRES   REMARKS
BURLINGTON     MOSUNNY   84  69  60 N5        30.05S HX  88
FAIRFIELD *    PTSUNNY   82  68  61 VRB5G12   30.06F HX  85
KEOKUK *       MOSUNNY   84  68  58 VRB6      30.04F HX  87
OSKALOOSA *      N/A     82  67  61 N12       30.07F HX  84
CENTERVILLE *    N/A     82  68  61 N8        30.09F HX  85
OTTUMWA        CLOUDY    84  70  62 NW12G21   30.06F HX  88
WASHINGTON *   MOSUNNY   84  68  58 NW9G17    30.06F HX  87
$$

ABBREVIATIONS USED IN REMARKS
   TC - TEMPERATURES IN CELSIUS
  WCI - WIND CHILL INDEX
   HX - HEAT INDEX
  VSB - VISIBILITY
$$





USA.gov is the U.S. government's official web portal to all federal, state and local government web resources and services.